SEIBRANZ Weather Reports


time (UTC)temp
C
wind
direction
speed
KPH
gust
KPH
rain 1hr
cm
rain 24hr
cm
rain mn
cm
humidity
%
barometer
mb
20260507013212 6 211 17.7 0.0 0.00 0.00 0.00 94 1010.7
20260507010211 5 187 6.4 0.0 0.00 0.00 0.00 93 1010.6
20260507003209 5 217 8.0 0.0 0.00 0.00 0.00 93 1010.3
20260507000209 6 193 9.7 0.0 0.00 0.00 0.00 93 1010.4
20260506233209 5 182 11.3 0.0 0.00 0.00 0.00 92 1010.4
20260506230209 6 221 12.9 0.0 0.00 0.00 0.00 92 1010.1
20260506223209 7 211 16.1 0.0 0.00 0.00 0.00 91 1010.1
20260506213209 7 173 22.5 0.0 0.00 0.00 0.03 90 1009.8
20260506210210 7 216 9.7 0.0 0.00 0.00 0.03 91 1009.7
20260506203210 7 211 17.7 0.0 0.00 0.00 0.03 90 1009.6
20260506200210 7 186 22.5 0.0 0.00 0.00 0.03 91 1009.3
20260506193215 8 204 17.7 0.0 0.00 0.00 0.03 89 1009.2
20260506190211 8 213 19.3 0.0 0.00 0.00 0.03 90 1008.7
20260506183209 7 225 25.7 0.0 0.00 0.00 0.03 89 1008.2
20260506180216 8 188 19.3 0.0 0.00 0.00 0.03 89 1007.8
20260506173210 8 257 32.2 0.0 0.00 0.00 0.03 88 1008.0
20260506170215 8 209 29.0 0.0 0.00 0.00 0.03 88 1007.4
20260506163210 8 210 29.0 0.0 0.00 0.00 0.03 87 1007.2
20260506160210 8 214 35.4 0.0 0.00 0.00 0.03 87 1007.1
20260506153210 8 231 51.5 0.0 0.00 0.00 0.03 89 1006.5
20260506150210 9 171 48.3 0.0 0.00 0.00 0.03 90 1005.6
20260506143210 13 209 16.1 0.0 0.00 0.00 0.00 78 1004.6
20260506140210 15 144 14.5 0.0 0.00 0.00 0.00 72 1004.3
20260506133211 13 42 9.7 0.0 0.00 0.00 0.00 82 1004.1
20260506130211 13 139 16.1 0.0 0.00 0.00 0.00 73 1005.1
20260506123210 15 98 11.3 0.0 0.00 0.00 0.00 65 1004.7
20260506120210 15 42 11.3 0.0 0.00 0.00 0.00 69 1004.4
20260506113217 14 65 16.1 0.0 0.00 0.00 0.00 70 1004.3
20260506110210 15 96 14.5 0.0 0.00 0.00 0.00 68 1004.7
20260506100213 13 67 12.9 0.0 0.00 0.00 0.00 73 1005.1
20260506093211 13 135 11.3 0.0 0.00 0.00 0.00 73 1005.5
20260506090211 13 5 1.6 0.0 0.00 0.00 0.00 71 1005.5
20260506083211 13 5 6.4 0.0 0.00 0.00 0.00 77 1005.1
20260506080212 12 248 3.2 0.0 0.00 0.00 0.00 80 1005.4
20260506073211 11 249 6.4 0.0 0.00 0.00 0.00 86 1005.2
20260506070212 11 238 4.8 0.0 0.00 0.00 0.00 86 1005.7
20260506060210 10 196 1.6 0.0 0.00 0.00 0.00 92 1005.5
20260506050211 7 169 3.2 0.0 0.00 0.00 0.00 93 1005.8
20260506043211 6 185 3.2 0.0 0.00 0.00 0.00 93 1006.1
20260506040211 7 225 6.4 0.0 0.00 0.00 0.00 93 1006.4
20260506033211 6 192 4.8 0.0 0.00 0.00 0.00 92 1006.6
20260506030212 7 211 8.0 0.0 0.00 0.00 0.00 92 1007.0
20260506023211 7 203 8.0 0.0 0.00 0.00 0.00 92 1007.1
20260506020212 7 236 4.8 0.0 0.00 0.00 0.00 91 1007.3